Weather History for PHKO - March, 2014

Change the Weather History Date:

Wednesday, March 5, 2014

  Actual Average (WUND) Record (WUND)
Temperature  
Mean Temperature 73 °F -  
Max Temperature 82 °F - - (-1)
Min Temperature 64 °F - - (-1)
Cooling Degree Days 8    
Growing Degree Days 23 (Base 50)    
Moisture  
Dew Point 59 °F    
Average Humidity 61    
Maximum Humidity 81    
Minimum Humidity 45    
Precipitation  
Precipitation 0.00 in - - ()
Sea Level Pressure  
Sea Level Pressure 29.99 in    
Wind  
Wind Speed 7 mph (North)    
Max Wind Speed 15 mph    
Max Gust Speed 21 mph    
Visibility 10 miles    
Events      
Averages and records for this station are not official NWS values.
T = Trace of Precipitation, MM = Missing Value Source: NWS Daily Summary

Daily Weather History Graph

Daily Weather History Graph

Search for Another Location

Airport or City:

Trip Planner

Search our weather history database for the weather conditions in past years. The results will help you decide how hot, cold, wet, or windy it might be!

Date:

Astronomy

Mar. 05, 2014 Rise Set
Actual Time 6:40 AM HST 6:30 PM HST
Civil Twilight 6:18 AM HST 6:52 PM HST
Nautical Twilight 5:53 AM HST 7:18 PM HST
Astronomical Twilight 5:27 AM HST 7:43 PM HST
Moon 9:54 AM HST (3/5) 11:06 PM HST (3/5)
Length of Visible Light 12h 34m
Length of Day
11h 50m
Waxing Crescent, 25% of the Moon is Illuminated
Mar 5
Waxing Crescent
Mar 8
First Quarter
Mar 16
Full
Mar 23
Last Quarter
Mar 30
New

Hourly Weather History & Observations

Time (HST) Temp. Heat Index Dew Point Humidity Pressure Visibility Wind Dir Wind Speed Gust Speed Precip Events Conditions
12:53 AM 69.1 °F - 60.1 °F 73% 30.01 in 10.0 mi East 5.8 mph - N/A   Clear
1:53 AM 66.9 °F - 60.1 °F 79% 29.99 in 10.0 mi East 4.6 mph - N/A   Clear
2:53 AM 66.0 °F - 60.1 °F 81% 29.97 in 10.0 mi East 5.8 mph - N/A   Clear
3:53 AM 66.0 °F - 60.1 °F 81% 29.96 in 10.0 mi East 6.9 mph - N/A   Clear
4:53 AM 66.0 °F - 59.0 °F 78% 29.96 in 10.0 mi East 6.9 mph - N/A   Clear
5:53 AM 64.9 °F - 59.0 °F 81% 29.98 in 10.0 mi NE 6.9 mph - N/A   Clear
6:53 AM 68.0 °F - 57.0 °F 68% 30.00 in 10.0 mi NE 11.5 mph - N/A   Clear
7:53 AM 72.0 °F - 55.9 °F 57% 30.01 in 10.0 mi NE 10.4 mph - N/A   Clear
8:53 AM 77.0 °F - 60.1 °F 56% 30.03 in 10.0 mi North 15.0 mph - N/A   Clear
9:53 AM 79.0 °F - 59.0 °F 50% 30.04 in 10.0 mi North 13.8 mph - N/A   Clear
10:53 AM 81.0 °F 81.1 °F 57.9 °F 45% 30.02 in 10.0 mi NNW 13.8 mph 20.7 mph N/A   Clear
11:53 AM 81.0 °F 81.1 °F 57.9 °F 45% 30.01 in 10.0 mi NNW 12.7 mph - N/A   Clear
12:53 PM 82.0 °F 82.1 °F 59.0 °F 45% 29.97 in 10.0 mi NW 9.2 mph - N/A   Clear
1:53 PM 81.0 °F 81.6 °F 60.1 °F 49% 29.96 in 10.0 mi NNW 9.2 mph - N/A   Clear
2:53 PM 81.0 °F 81.3 °F 59.0 °F 47% 29.94 in 10.0 mi West 9.2 mph - N/A   Clear
3:53 PM 80.1 °F 80.7 °F 59.0 °F 48% 29.94 in 10.0 mi West 6.9 mph - N/A   Clear
4:53 PM 80.1 °F 80.7 °F 59.0 °F 48% 29.96 in 10.0 mi West 5.8 mph - N/A   Clear
5:53 PM 78.1 °F - 59.0 °F 52% 29.97 in 10.0 mi WSW 5.8 mph - N/A   Overcast
6:53 PM 77.0 °F - 60.1 °F 56% 29.99 in 10.0 mi West 4.6 mph - N/A   Clear
7:53 PM 77.0 °F - 60.1 °F 56% 30.01 in 10.0 mi West 3.5 mph - N/A   Scattered Clouds
8:53 PM 75.0 °F - 61.0 °F 62% 30.03 in 10.0 mi Calm Calm - N/A   Mostly Cloudy
9:53 PM 73.9 °F - 61.0 °F 64% 30.02 in 10.0 mi ENE 4.6 mph - N/A   Mostly Cloudy
10:53 PM 72.0 °F - 61.0 °F 68% 30.01 in 10.0 mi Calm Calm - N/A   Clear
11:53 PM 72.0 °F - 61.0 °F 68% 30.01 in 10.0 mi East 3.5 mph - N/A   Clear